This demonstration page uses our WeatherBlox Daily Observations layout. Learn more.

Hourly Observations for June 13, 2020

Temp ( °F °C ) Dew Point ( °F °C ) Humidity (%) Winds ( mph kmh ) Pressure ( in mb ) Visibility ( mi km ) Precip ( " mm )
12:54 am 00:54 Clear 74 23.3 58 14.4 57 57 ESE 8 13 30.12 1020 10 16.0934 0 0
1:54 am 01:54 Clear 73 22.8 58 14.4 59 59 ESE 9 15 30.12 1020 10 16.0934 0 0
2:54 am 02:54 Clear 72 22.2 58 14.4 61 61 SE 7 11 30.12 1020 10 16.0934 0 0
3:54 am 03:54 Clear 73 22.8 58 14.4 59 59 SE 9 15 30.11 1020 10 16.0934 0 0
4:54 am 04:54 Clear 69 20.6 58 14.4 68 68 ESE 6 9 30.11 1020 10 16.0934 0 0
5:54 am 05:54 Clear 69 20.6 58 14.4 68 68 ESE 9 15 30.11 1020 10 16.0934 0 0
6:54 am 06:54 Sunny 71 21.7 58 14.4 63 63 SE 12 19 30.11 1020 10 16.0934 0 0
7:54 am 07:54 Sunny 73 22.8 59 15 62 62 SE 8 13 30.1 1019 10 16.0934 0 0
8:54 am 08:54 Sunny 76 24.4 60 15.6 58 58 SSE 14 22 30.09 1019 10 16.0934 0 0
9:54 am 09:54 Sunny 81 27.2 61 16.1 51 51 SE 15 24 30.08 1019 10 16.0934 0 0
10:54 am 10:54 Sunny 84 28.9 61 16.1 46 46 SE 14 22 30.06 1018 10 16.0934 0 0
11:54 am 11:54 Sunny 87 30.6 60 15.6 40 40 SE 17 28 30.06 1018 10 16.0934 0 0
12:54 pm 12:54 Sunny 89 31.7 61 16.1 39 39 SE 20 31 30.04 1017 10 16.0934 0 0
1:54 pm 13:54 Sunny 91 32.8 60 15.6 35 35 ESE 18 30 30.01 1016 10 16.0934 0 0
2:54 pm 14:54 Sunny 93 33.9 57 13.9 30 30 SE 15 24 29.98 1015 10 16.0934 0 0
3:54 pm 15:54 Sunny 93 33.9 56 13.3 29 29 SSE 20 31 29.96 1015 10 16.0934 0 0
4:54 pm 16:54 Sunny 93 33.9 57 13.9 30 30 SE 18 30 29.96 1014 10 16.0934 0 0
5:54 pm 17:54 Sunny 92 33.3 57 13.9 31 31 SE 18 30 29.94 1014 10 16.0934 0 0
6:54 pm 18:54 Sunny 90 32.2 57 13.9 33 33 SSE 18 30 29.93 1014 10 16.0934 0 0
7:54 pm 19:54 Sunny 88 31.1 58 14.4 36 36 SE 16 26 29.94 1014 10 16.0934 0 0
8:54 pm 20:54 Sunny 85 29.4 59 15 42 42 SE 17 28 29.94 1014 10 16.0934 0 0
9:54 pm 21:54 Clear 84 28.9 59 15 43 43 SE 15 24 29.96 1014 10 16.0934 0 0
10:54 pm 22:54 Clear 82 27.8 61 16.1 49 49 SE 17 28 29.98 1015 10 16.0934 0 0
11:54 pm 23:54 Clear 81 27.2 61 16.1 51 51 SE 16 26 29.99 1016 10 16.0934 0 0

Powered by AerisWeather